Regional Weather Roundup
Issued by NWS

Home | Current Version | Previous Version | Text Only | Print | Product List | Glossary On
Versions: 1 2 3 4 5 6 7 8 9 10 11 12 13 14 15 16 17 18 19 20 21 22 23 24 25 26 27 28 29 30 31 32 33 34 35 36 37 38 39 40 41 42 43 44 45 46 47 48 49 50
000
ASUS43 KLOT 042121
RWRIL

ILLINOIS REGIONAL WEATHER ROUNDUP
NATIONAL WEATHER SERVICE CHICAGO/ROMEOVILLE IL
400 PM CDT SAT JUL 04 2015

NOTE: "FAIR" INDICATES FEW OR NO CLOUDS BELOW 12,000 FEET WITH NO
SIGNIFICANT WEATHER AND/OR OBSTRUCTIONS TO VISIBILITY.

* THESE STATIONS ARE NOT UNDER NWS QUALITY CONTROL. THEY ALSO MAY NOT
  REPORT WEATHER SUCH AS PRECIPITATION OR FOG.

ILZ001-002-007-009-015-016-024-042200-
NORTHWEST ILLINOIS

CITY           SKY/WX    TMP DP  RH WIND       PRES   REMARKS
MOLINE         SUNNY     81  60  48 SW8       30.00S HX  82
STERLING*      MOSUNNY   81  61  50 CALM      30.00F HX  81
SAVANNA*       SUNNY     81  58  46 SW7       30.00S HX  81
$$

ILZ003-004-008-010-011-017-018-042200-
NORTH CENTRAL ILLINOIS

CITY           SKY/WX    TMP DP  RH WIND       PRES   REMARKS
ROCKFORD       MOSUNNY   81  61  50 W5        30.01S HX  82
FREEPORT*      MOSUNNY   78  60  54 SW5       30.02S
ROCHELLE*      MOSUNNY   78  59  52 S3        30.01F HX  80
DE KALB*       MOSUNNY   77  60  56 W8        30.02S
PERU*          SUNNY     79  57  46 SW3       30.02S HX  80
$$

ILZ005-006-012>014-019>023-042200-
NORTHEAST ILLINOIS

CITY           SKY/WX    TMP DP  RH WIND       PRES   REMARKS
CHICAGO-OHARE  MOSUNNY   81  53  37 CALM      29.99S HX  80
CHICAGO-MIDWAY MOSUNNY   83  58  42 SW8       29.99S HX  83
AURORA         SUNNY     80  56  43 W8        30.01F HX  80
LANSING*       SUNNY     80  55  41 SW8       30.00S HX  80
JOLIET*        MOSUNNY   82  59  46 SW5       30.00F HX  82
WAUKEGAN       SUNNY     74  57  55 SE10      29.99F
DUPAGE AIRPORT SUNNY     80  58  46 SW9       30.00S HX  80
KANKAKEE*      MOSUNNY   80  60  51 SW3       30.02S HX  81
WHEELING       SUNNY     81  56  42 VRB6      30.00F HX  81
MORRIS*        SUNNY     80  56  43 W5        29.99F HX  80
ROMEOVILLE*    PTSUNNY   80  55  41 W10       30.00F HX  80
NORTHERLY ISL    N/A     71  59  65 NE2         N/A
$$

LMZ740>746-042200-
SOUTHERN LAKE MICHIGAN

STATION/POSITION SKY/WX   TEMP    WIND        PRES    VSBY  WAVE
                          AIR SEA DIR/SP/G                  HT/PER
                          (F)     (DEG/KT/KT) (MB)    (MI)  (FT/S)
HARRISON CRIB              67      80/  9/ 10   N/A
BURNHAM HARBOR             70      80/  2/  4   N/A
CALUMET HARBOR             71      50/  7/  9   N/A
BURNS HARBOR               71      70/  9/ 10 1016.6F
MICHIGAN CITY              67      30/  9/  9   N/A
MICHIGAN CITY 6N           68 66   90/  6/  6   N/A           1
ST. JOSEPH                 68 67                N/A           1
$$

ILZ025>027-034>036-040-047-049-050-058-095>099-042200-
WEST-CENTRAL ILLINOIS

CITY           SKY/WX    TMP DP  RH WIND       PRES   REMARKS
QUINCY         SUNNY     82  60  47 CALM      29.99F HX  82
GALESBURG*     MOSUNNY   79  60  52 S6        30.01F HX  80
MACOMB*        SUNNY     79  62  54 W3        30.02F HX  81
JACKSONVILLE*  MOSUNNY   82  64  54 CALM      29.99F HX  83
PITTSFIELD*    SUNNY     82  58  44 W3        30.01F HX  82
$$

ILZ028>032-037-038-041>044-048-051>054-059>061-042200-
CENTRAL ILLINOIS

CITY           SKY/WX    TMP DP  RH WIND       PRES   REMARKS
PONTIAC        MOSUNNY   80  63  56 W7        30.02S HX  81
BLOOMINGTON    MOSUNNY   80  62  54 S6        30.03F HX  81
DECATUR        SUNNY     81  63  54 N5        30.00F HX  82
PEORIA         SUNNY     81  56  42 CALM      30.01S HX  81
LACON*         SUNNY     79  58  48 SW7       30.00S HX  80
LINCOLN*       PTSUNNY   82  59  44 CALM      30.00F HX  82
SPRINGFIELD    SUNNY     83  61  47 CALM      30.00F HX  83
TAYLORVILLE    MOSUNNY   79  63  57 W3        30.01S HX  80
$$

ILZ033-039-045-046-055>057-062-063-042200-
EAST-CENTRAL ILLINOIS

CITY           SKY/WX    TMP DP  RH WIND       PRES   REMARKS
CHAMPAIGN      SUNNY     79  59  50 CALM      30.01F HX  80
DANVILLE*      SUNNY     78  61  55 CALM      29.99S HX  80
RANTOUL*       PTSUNNY   80  62  53 S3        30.01S HX  81
MATTOON        MOSUNNY   79  61  53 N3        30.00F HX  80
PARIS*         MOSUNNY   80  62  55 CALM      30.01F HX  81
$$

ILZ079-100>102-042200-
SOUTHWEST ILLINOIS

CITY           SKY/WX    TMP DP  RH WIND       PRES   REMARKS
BELLEVILLE     SUNNY     83  65  55 VRB5      29.98S HX  84
CAHOKIA*       MOSUNNY   83  60  45 CALM      29.98F HX  83
SPARTA*        MOSUNNY   82  64  54 N3        29.99S HX  83
$$

ILZ064>066-069>071-074>076-080>082-084>086-088>090-092>094-042200-
SOUTH-CENTRAL ILLINOIS

CITY           SKY/WX    TMP DP  RH WIND       PRES   REMARKS
CARBONDALE     PTSUNNY   82  64  54 VRB6      29.98S HX  83
CAIRO*         CLOUDY    79  67  66 NE3       29.96F HX  81
EFFINGHAM*     SUNNY     79  58  47 CALM      30.01F HX  80
MARION         PTSUNNY   82  64  54 NE6       29.99F HX  84
MT. VERNON     MOSUNNY   79  63  57 MISG      29.99S HX  80
CENTRALIA*     SUNNY     80  61  51 NW3       29.99F HX  81
SALEM*         SUNNY     82  60  47 CALM      29.99F HX  83
$$

ILZ067-068-072-073-078-083-087-091-042200-
SOUTHEAST ILLINOIS

CITY           SKY/WX    TMP DP  RH WIND       PRES   REMARKS
LAWRENCEVILLE  MOSUNNY   80  65  59 NE5       29.98F HX  82
FLORA*         MOSUNNY   79  63  56 NE3       29.99F HX  81
FAIRFIELD*     MOSUNNY   80  63  56 CALM      29.97F HX  81
HARRISBURG*    CLOUDY    80  66  62 NE5       29.99S HX  82
ROBINSON*      MOSUNNY   81  62  53 N5        30.00F HX  82
CARMI*         PTSUNNY   82  62  51 N3        29.97F HX  82
$$

ABBREVIATIONS USED IN REMARKS
   TC - TEMPERATURE IN CELSIUS
  WCI - WIND CHILL INDEX
   HX - HEAT INDEX
  VSB - VISIBILITY
$$



USA.gov is the U.S. government's official web portal to all federal, state and local government web resources and services.